Content
SEND FEEDBACK

Daily
Averages
Monthly
Summary
United States of America

MALDEN, WASHINGTON


Home > North America > United States > Washington
Elevation: 2354 feet     Latitude: 47 14N     Longitude: 117 22W

WEATHER
 
SELECT A DAY
Number of Records: 192,158;   Date Range: 1/1/95 - 12/18/14
 
SHARE

PRINT THIS DATA

[ ← Previous Day ]
WEATHER ALMANAC - FEBRUARY 13, 2013
[ Next Day → ]
[ °C ]   °F
Weather ElementAverageHighLow
Temperature36.7 °F43 °F (10:53 am)27 °F (11:53 pm)
Dewpoint28.8 °F34 °F (3:53 am)23 °F (11:53 pm)
Humidity74 %93 % (3:53 am)57 % (2:53 pm)
Barometer30.23 in30.37 in (11:53 pm)30.12 in (5:53 am)
Wind Speed12 mph19.6 mph (1:53 am)
Weather ElementAverage
Visibility10 mi
Wind DirectionWSW (237 °)

Weather ElementTotal
Precipitation---
Heating Degree Days30 (Base 65)
Averaged from 23 records on February 13, 2013
WEATHER CONDITIONS BREAKOUT
WIND DIRECTION BREAKOUT
WEATHER BY HOUR - FEBRUARY 13, 2013
[ °C ]   °F
Local TimeTemperatureDewpointHumidityBarometerVisibilityWind DirectionWind SpeedGust SpeedPrecipitationEventsConditions
1:53 AM37.0 °F33.1 °F86 %30.17 in10.0 miSW (220°)19.6 mphOvercast
2:53 AM36.0 °F33.1 °F89 %30.15 in10.0 miSW (220°)18.4 mphPartly Cloudy
3:53 AM36.0 °F34.0 °F93 %30.16 in10.0 miSW (220°)15.0 mphPartly Cloudy
4:53 AM36.0 °F33.1 °F89 %30.16 in10.0 miSW (220°)15.0 mphPartly Cloudy
5:53 AM35.6 °F32.0 °F87 %30.12 in10.0 miSW (220°)18.4 mphPartly Cloudy
6:53 AM35.1 °F30.9 °F85 %30.17 in10.0 miSW (230°)16.1 mphMostly Cloudy
7:53 AM36.0 °F32.0 °F86 %30.19 in10.0 miSW (230°)17.3 mphScattered Clouds
8:53 AM39.0 °F32.0 °F76 %30.21 in10.0 miWSW (240°)13.8 mphMostly Cloudy
9:53 AM41.0 °F30.9 °F67 %30.22 in10.0 miWSW (240°)16.1 mphMostly Cloudy
10:53 AM43.0 °F30.9 °F62 %30.23 in10.0 miWSW (250°)12.7 mphMostly Cloudy
11:53 AM43.0 °F28.9 °F58 %30.22 in10.0 miWSW (250°)10.4 mphMostly Cloudy
12:53 PM41.0 °F28.9 °F62 %30.23 in10.0 miWSW (250°)10.4 mphMostly Cloudy
1:53 PM42.1 °F28.0 °F58 %30.22 in10.0 miWSW (250°)10.4 mphMostly Cloudy
2:53 PM41.0 °F27.0 °F57 %30.24 in10.0 miWSW (250°)12.7 mphMostly Cloudy
3:53 PM39.0 °F27.0 °F62 %30.25 in10.0 miWSW (250°)12.7 mphMostly Cloudy
4:53 PM37.9 °F27.0 °F65 %30.25 in10.0 miWSW (250°)11.5 mphMostly Cloudy
5:53 PM37.0 °F26.1 °F65 %30.26 in10.0 miWSW (250°)11.5 mphScattered Clouds
6:53 PM35.1 °F26.1 °F70 %30.28 in10.0 miWSW (250°)10.4 mphScattered Clouds
7:53 PM33.1 °F25.0 °F72 %30.30 in10.0 miSW (230°)5.8 mphScattered Clouds
8:53 PM30.9 °F24.1 °F76 %30.32 in10.0 miWSW (240°)3.5 mphPartly Cloudy
9:53 PM30.9 °F24.1 °F76 %30.33 in10.0 miSW (230°)5.8 mphClear
10:53 PM30.9 °F24.1 °F76 %30.34 in10.0 miSW (220°)4.6 mphPartly Cloudy
11:53 PM27.0 °F23.0 °F85 %30.37 in10.0 miWSW (240°)4.6 mphScattered Clouds
Hourly data recorded from KGEG, located miles away from Malden, Washington







STORIES FROM OUR PARTNERS